Wetbulb
55.26 55.44 55.51 55.54 55.55 55.54 55.56 55.66 55.89 55.98 56.04 56.28 56.45 56.69 57.02 57.68 57.58 55.24 52.20 55.49 57.75 65.36 66.71 63.54 63.53 61.96 61.09 58.90 60.31 59.71 48.47 46.83 48.59 49.34 51.58 53.80 51.73 55.72 57.05 55.19 55.77 55.92 54.64 58.83 60.48
55.79 55.58 55.51 55.50 55.38 55.73 55.39 55.39 55.53 55.60 55.61 55.75 55.80 55.85 56.64 57.50 53.09 50.76 58.01 64.29 64.53 67.19 60.67 60.36 58.56 59.61 56.92 57.36 58.11 54.87 49.28 49.70 53.94 54.21 52.79 53.01 51.57 52.51 54.36 54.22 54.29 56.53 57.48 60.19 60.03
55.65 55.91 56.35 56.20 55.44 55.83 55.44 55.41 55.55 55.48 55.43 55.49 55.34 55.65 56.62 56.89 51.21 50.82 67.66 66.58 65.94 67.29 58.08 58.18 60.59 59.37 55.33 57.56 56.89 54.98 50.02 53.33 54.25 55.99 56.13 54.42 51.66 53.45 52.40 51.89 54.44 53.38 55.13 56.69 57.17
55.68 55.97 56.29 56.28 55.94 56.02 55.48 55.19 55.17 55.33 55.38 55.38 55.33 55.69 56.59 54.22 40.39 55.08 68.11 67.69 67.89 64.26 57.66 55.15 54.98 54.71 54.38 53.48 56.84 52.36 54.41 54.98 55.08 56.24 55.43 52.58 53.20 52.29 52.93 53.98 56.96 56.86 56.74 55.81 55.21
54.27 54.80 55.27 56.42 56.19 55.94 55.93 55.80 55.27 54.85 54.96 55.07 55.16 55.74 53.25 48.11 47.96 57.66 68.55 68.02 65.61 61.47 55.35 53.15 50.84 51.34 50.48 54.64 55.20 53.45 54.48 55.86 56.40 56.28 53.39 54.13 52.64 52.79 52.55 56.27 57.72 56.41 55.99 55.21 54.57
53.64 53.71 53.96 55.39 56.02 55.86 55.54 55.41 55.26 55.12 55.33 55.25 55.24 55.81 51.31 41.97 52.34 54.55 54.69 59.98 59.44 56.22 54.35 53.56 51.34 52.94 51.09 53.32 53.18 55.12 54.53 54.94 56.00 55.39 53.51 52.51 53.12 53.77 54.27 56.94 56.26 54.59 53.93 54.21 54.67
53.33 53.58 53.92 54.24 54.75 55.45 55.62 55.13 54.68 55.21 55.36 55.44 56.02 53.63 48.06 45.87 54.41 55.22 53.99 51.86 57.74 56.34 53.09 54.27 54.54 52.53 52.09 49.75 53.48 53.25 50.25 52.38 53.81 54.11 51.69 54.14 51.02 51.34 54.87 55.60 54.60 54.18 54.13 54.25 55.03
51.90 52.65 53.29 53.07 53.69 54.29 54.86 55.28 55.13 55.65 55.76 56.11 56.39 51.48 43.28 52.09 54.40 52.77 53.37 52.40 54.51 59.86 56.21 56.02 54.93 51.92 50.62 52.14 51.85 49.49 50.44 46.74 51.01 52.74 53.65 52.03 46.71 52.43 55.20 54.10 53.71 54.64 55.13 55.09 54.93
52.84 51.90 52.17 52.71 53.07 53.51 53.97 54.23 54.49 54.64 55.81 56.28 51.98 47.83 41.30 54.42 50.38 53.36 54.70 51.59 53.05 56.06 57.58 59.13 53.91 50.05 50.11 47.01 44.83 47.05 42.66 44.91 48.52 53.27 52.66 50.97 48.52 53.06 54.97 54.08 53.15 54.17 54.57 54.81 54.13
53.45 52.91 51.79 51.60 52.25 53.41 53.33 53.33 53.24 53.91 54.07 54.45 52.58 44.11 47.53 47.89 50.79 53.43 54.48 54.75 51.75 52.62 51.59 50.94 48.93 46.58 46.46 45.47 38.96 41.69 43.37 46.88 46.96 51.06 51.34 50.01 49.83 52.21 53.87 53.53 52.91 52.84 54.23 54.91 54.57
53.69 53.37 52.60 51.81 51.50 52.54 51.12 47.65 46.23 47.07 48.62 45.76 45.73 44.72 49.58 53.32 56.83 52.61 55.15 52.87 51.98 49.38 46.80 49.31 41.83 41.69 45.35 47.26 48.17 46.98 46.16 46.26 49.59 52.23 50.51 49.74 50.46 51.23 53.06 52.55 51.23 52.02 52.88 54.28 54.13
53.10 53.23 52.81 52.38 51.39 51.96 49.55 42.88 46.37 47.12 41.57 48.84 48.98 48.04 49.75 51.74 47.60 52.99 53.93 49.32 47.19 43.51 45.60 44.13 40.72 46.17 49.17 49.09 48.54 47.67 45.39 45.02 48.78 51.71 50.86 50.28 49.26 51.45 52.85 51.99 52.17 52.43 52.29 52.08 53.20
53.02 53.37 53.14 52.13 51.59 48.38 45.47 45.10 49.91 48.87 41.15 45.26 48.91 48.86 49.22 51.43 47.16 49.13 51.62 49.69 45.89 43.29 43.47 40.91 44.49 48.77 48.77 47.21 46.58 47.13 45.49 45.33 45.76 49.98 51.08 47.98 45.47 49.06 52.32 52.77 53.27 53.68 53.14 54.01 53.72
52.72 52.89 53.01 52.22 46.03 47.48 47.71 51.58 52.69 50.51 34.17 38.28 43.74 47.10 51.04 51.50 47.65 52.18 53.48 49.62 46.47 42.98 43.95 42.40 46.69 47.30 46.98 46.30 47.47 43.79 49.66 48.73 47.90 46.87 40.72 48.29 36.36 45.15 48.85 49.68 51.50 51.74 51.72 53.02 53.84
52.81 52.84 52.95 51.14 43.46 41.64 47.80 50.45 52.18 47.83 22.21 41.90 43.36 51.84 49.99 48.27 49.88 49.84 53.10 49.43 45.07 44.88 44.62 41.86 43.91 44.51 44.55 46.99 49.12 46.48 50.47 49.09 48.99 46.53 42.59 43.41 38.55 42.13 48.04 47.71 49.74 49.36 52.22 53.37 53.96
52.71 52.81 52.63 49.54 46.58 44.62 48.95 50.86 47.78 32.02 22.10 39.41 46.72 45.21 44.89 48.21 49.31 51.23 49.14 51.06 49.27 45.86 45.91 44.58 48.10 46.57 45.54 48.52 50.65 51.50 49.05 48.74 48.06 43.68 35.32 42.03 40.92 40.87 45.09 47.94 48.59 50.15 52.14 54.43 53.73
52.53 52.39 51.37 50.24 43.24 48.96 49.32 45.81 32.55 25.76 39.83 39.37 43.19 44.86 44.31 44.05 46.64 48.20 45.05 43.98 42.04 39.36 39.98 43.93 44.03 47.01 48.29 45.91 48.55 49.51 43.96 36.99 32.36 32.05 32.15 44.35 41.40 42.95 48.25 50.71 49.90 50.97 52.45 53.52 54.67
52.09 51.89 50.52 49.89 49.78 48.39 46.50 37.42 25.50 33.65 34.05 40.74 41.32 42.88 42.11 45.00 44.77 46.14 44.87 41.23 44.54 43.64 40.23 38.61 37.23 44.15 47.34 45.52 44.96 45.68 44.33 36.77 29.99 31.27 36.42 44.92 39.47 44.37 51.12 51.62 51.90 54.11 54.07 54.43 53.48
50.87 47.68 47.36 48.66 49.85 47.84 40.19 29.42 28.27 33.57 38.43 38.86 39.16 37.47 39.84 45.01 45.18 44.65 44.02 42.19 44.12 45.07 39.24 38.96 39.60 47.17 47.53 47.83 47.64 45.18 42.64 46.36 39.85 40.14 36.19 40.66 45.49 48.99 49.82 49.62 50.39 53.82 54.24 52.61 52.85
46.31 45.78 44.76 49.59 50.04 45.14 35.81 30.79 32.87 39.43 40.40 39.72 33.21 37.45 33.88 38.26 39.81 42.49 42.88 46.36 44.71 46.77 47.24 43.09 38.02 46.09 47.22 48.10 48.22 47.25 48.94 40.68 37.85 31.04 28.98 38.72 40.92 41.98 45.61 47.39 49.60 53.02 52.44 52.68 53.37
44.98 40.77 45.42 49.29 48.60 39.85 30.31 31.14 35.84 40.43 40.52 37.07 35.10 34.80 35.99 36.14 39.21 39.86 42.66 46.96 48.15 46.96 47.29 46.03 42.48 43.69 46.35 44.19 43.24 45.14 43.79 42.19 40.87 38.45 32.02 30.77 37.73 47.20 47.00 49.54 51.55 53.20 53.90 53.43 53.70
43.70 34.99 48.66 48.39 37.24 35.53 33.19 34.14 39.51 38.41 41.25 39.00 38.85 37.79 36.27 37.20 37.04 37.83 40.57 45.71 49.82 48.53 44.13 46.46 42.27 39.76 44.13 47.94 48.97 48.06 45.21 43.02 39.25 36.28 39.47 38.63 38.91 50.38 51.70 52.55 53.37 54.71 54.97 53.38 53.63
39.49 39.42 47.44 45.66 31.36 31.91 34.83 35.44 37.94 37.17 37.55 37.66 37.15 38.92 39.43 36.16 34.53 39.19 43.13 48.61 49.10 47.64 45.75 46.54 42.48 37.17 40.46 44.53 47.68 46.91 47.47 46.17 43.33 42.38 39.25 37.01 39.04 50.86 52.01 53.93 55.72 54.36 54.95 54.60 53.30
39.43 32.70 39.38 42.61 40.03 34.91 33.44 32.93 32.55 39.31 38.26 38.99 38.12 39.65 37.06 36.35 39.66 37.62 40.72 45.73 46.19 49.07 52.63 50.72 42.69 40.97 38.67 41.95 46.48 44.69 46.74 46.95 43.84 39.28 40.62 42.83 43.48 47.40 49.53 51.41 54.04 54.18 54.22 54.26 53.77
39.95 34.96 39.85 32.07 33.51 35.03 35.35 33.87 31.73 31.32 36.87 38.50 36.04 37.41 36.27 33.29 35.40 36.53 39.14 40.67 44.20 49.27 44.59 47.62 41.66 44.64 45.38 47.46 48.26 47.65 47.21 46.97 44.72 44.29 42.20 43.65 44.58 48.32 49.31 50.01 53.90 54.78 54.30 54.40 53.73
37.19 36.04 38.39 34.80 36.72 34.57 34.62 32.67 32.64 34.43 35.48 34.02 34.40 36.89 37.77 35.58 35.92 34.36 36.30 36.18 37.73 41.73 39.48 44.45 42.20 44.68 44.09 47.76 47.43 46.72 48.03 47.75 47.44 46.39 45.75 46.34 45.89 50.75 52.05 52.24 54.24 54.88 54.78 54.31 54.57
43.52 44.28 39.89 35.69 33.70 32.86 32.89 34.25 35.15 36.94 38.29 39.23 38.46 37.37 36.51 38.39 40.79 41.53 40.99 40.90 40.14 38.56 37.85 40.14 42.67 42.39 39.25 45.83 45.92 43.03 46.95 47.34 47.79 47.80 47.13 43.58 46.31 51.00 50.97 52.36 54.62 54.62 55.11 55.01 55.34
MSLP
1019.82 1019.65 1019.37 1018.90 1018.36 1017.96 1017.71 1017.45 1017.22 1016.88 1016.50 1015.98 1015.88 1015.71 1015.12 1014.79 1014.11 1013.22 1011.86 1009.45 1009.23 1009.37 1009.64 1009.48 1010.02 1009.86 1009.82 1009.79 1009.78 1009.93 1010.08 1009.15 1008.08 1007.31 1005.68 1004.60 1004.14 1003.36 1002.79 1003.03 1003.18 1003.37 1003.69 1004.47 1005.64
1019.15 1018.95 1018.53 1017.98 1017.75 1017.53 1017.38 1017.25 1017.08 1016.82 1016.10 1015.93 1016.21 1015.31 1014.80 1014.71 1014.14 1011.51 1008.56 1007.97 1007.87 1008.69 1009.51 1008.94 1009.04 1009.34 1009.41 1008.72 1009.05 1009.29 1008.91 1007.56 1007.06 1006.34 1005.41 1004.61 1004.11 1003.65 1003.38 1003.21 1003.22 1003.30 1003.88 1004.73 1005.46
1018.56 1018.28 1018.02 1017.81 1017.63 1017.35 1017.15 1016.95 1016.67 1016.27 1016.08 1016.19 1015.74 1015.17 1014.83 1014.59 1013.24 1008.44 1006.69 1007.07 1007.22 1007.97 1008.36 1008.34 1008.44 1008.71 1008.86 1008.37 1008.02 1007.86 1007.28 1006.49 1006.03 1005.37 1004.70 1004.27 1003.86 1003.48 1003.47 1003.46 1003.10 1003.25 1004.06 1004.71 1005.35
1018.70 1018.32 1017.98 1017.66 1017.37 1017.25 1016.98 1016.63 1016.27 1016.07 1016.13 1016.24 1015.58 1015.20 1014.35 1014.14 1011.33 1007.02 1006.33 1006.39 1006.79 1007.29 1007.98 1007.96 1008.03 1008.27 1008.04 1007.75 1007.15 1007.11 1006.40 1005.83 1005.20 1004.66 1004.23 1003.94 1003.54 1003.45 1003.41 1003.04 1002.56 1002.64 1003.36 1004.42 1005.27
1019.02 1018.62 1018.21 1017.85 1017.53 1017.07 1016.66 1016.48 1016.29 1016.11 1016.04 1015.45 1015.30 1015.06 1013.94 1012.68 1009.04 1006.86 1006.46 1006.58 1006.91 1007.45 1007.35 1007.45 1007.65 1007.23 1007.10 1006.62 1006.94 1006.36 1005.66 1005.01 1004.31 1003.84 1003.61 1003.20 1003.28 1003.18 1003.05 1002.55 1002.31 1002.55 1003.17 1004.08 1004.85
1018.88 1018.54 1018.14 1017.67 1017.17 1016.82 1016.60 1016.27 1016.00 1015.84 1015.75 1015.67 1015.25 1014.77 1014.11 1011.31 1007.40 1006.57 1006.37 1006.62 1006.57 1007.00 1006.74 1006.88 1006.64 1006.14 1006.45 1006.38 1006.14 1005.55 1004.94 1004.18 1003.74 1003.21 1002.82 1002.73 1002.76 1002.73 1002.38 1001.84 1002.12 1002.34 1002.95 1003.56 1004.25
1018.48 1018.13 1017.75 1017.37 1016.89 1016.39 1015.94 1015.65 1015.41 1015.15 1014.84 1014.75 1014.58 1014.48 1012.70 1008.24 1006.50 1005.56 1006.07 1006.14 1005.94 1005.91 1006.08 1005.95 1006.05 1006.17 1006.00 1005.67 1005.25 1004.93 1004.52 1003.75 1003.17 1002.73 1002.27 1002.29 1002.31 1001.98 1001.74 1001.57 1001.93 1002.32 1002.47 1002.88 1003.55
1018.12 1017.70 1017.33 1016.92 1016.52 1016.09 1015.52 1015.08 1014.75 1014.36 1013.97 1014.03 1014.01 1013.88 1010.31 1006.89 1006.39 1006.41 1005.19 1005.49 1005.49 1004.83 1005.02 1004.98 1005.27 1005.71 1005.92 1005.56 1005.13 1004.93 1004.24 1003.42 1002.77 1002.35 1001.62 1002.01 1001.32 1001.26 1001.08 1001.38 1001.70 1001.76 1002.00 1002.44 1003.01
1017.67 1017.30 1016.88 1016.50 1016.09 1015.62 1015.18 1014.69 1014.08 1013.45 1013.32 1013.41 1013.60 1012.79 1008.75 1005.50 1005.42 1004.16 1004.41 1004.79 1004.40 1004.36 1004.03 1004.42 1004.78 1005.45 1005.60 1005.70 1005.47 1004.55 1003.89 1003.24 1002.31 1001.65 1001.20 1000.93 1000.43 1000.32 1000.42 1000.91 1001.36 1001.63 1001.72 1002.06 1002.36
1017.16 1016.87 1016.51 1016.09 1015.66 1015.25 1014.74 1013.91 1012.24 1012.59 1012.26 1012.39 1012.01 1011.85 1007.49 1003.87 1002.97 1002.77 1003.01 1003.68 1003.99 1003.65 1003.73 1004.22 1004.57 1004.87 1004.92 1005.07 1003.78 1004.49 1003.88 1003.07 1002.12 1000.55 1000.62 1000.28 1000.02 999.79 999.86 1000.23 1000.76 1001.13 1001.29 1001.53 1002.22
1016.78 1016.39 1016.05 1015.79 1015.39 1015.07 1014.56 1013.01 1011.39 1011.86 1010.97 1008.72 1007.39 1005.64 1003.09 1002.65 1001.90 1001.92 1002.16 1002.97 1003.59 1003.34 1003.39 1003.86 1004.50 1003.58 1003.69 1003.77 1003.93 1004.03 1003.50 1002.62 1001.25 1000.22 1000.45 1000.00 999.54 999.51 999.39 999.85 1000.40 1000.76 1001.01 1001.20 1002.27
1016.56 1016.08 1015.71 1015.43 1015.05 1014.90 1014.93 1013.90 1011.45 1011.46 1009.53 1007.19 1005.87 1004.95 1003.49 1002.43 1002.25 1000.91 1001.30 1002.09 1002.52 1002.19 1003.35 1003.98 1002.23 1002.99 1003.37 1003.26 1003.20 1003.09 1002.86 1001.99 1001.10 1000.09 999.69 999.50 999.66 999.21 999.16 999.44 999.60 999.98 1000.24 1000.99 1002.26
1016.24 1015.79 1015.47 1015.22 1014.77 1014.32 1013.59 1012.85 1011.02 1011.00 1009.44 1005.11 1003.76 1002.88 1003.07 1002.77 1001.29 1000.45 1000.11 1000.39 1000.89 1001.81 1001.99 1001.90 1001.23 1002.60 1002.41 1002.31 1002.29 1001.93 1001.89 1001.56 1001.20 1000.01 999.27 999.25 999.26 999.15 998.79 998.65 998.75 998.95 999.16 1000.54 1001.76
1016.02 1015.56 1015.15 1015.03 1014.92 1013.48 1012.05 1011.03 1010.07 1010.28 1008.88 1002.80 1000.85 999.12 1000.41 1001.66 999.65 999.35 998.85 999.53 1000.00 1000.40 1001.36 1001.04 1001.22 1001.05 1001.10 1000.92 1001.17 1000.82 1000.59 1000.72 1000.49 1000.34 1000.38 999.49 1000.13 999.88 999.37 999.00 998.64 998.54 999.38 1000.50 1001.65
1015.59 1015.21 1014.92 1014.94 1014.70 1013.54 1011.86 1011.02 1009.80 1009.54 1007.34 998.94 996.68 995.95 996.61 997.65 997.04 997.16 997.78 998.17 998.48 999.27 1000.46 998.83 999.50 999.70 999.53 999.43 999.62 999.25 999.41 999.61 999.90 1000.25 1000.38 1000.04 1000.79 999.83 999.51 999.15 998.53 998.75 999.32 1000.13 1001.01
1015.07 1014.74 1014.55 1014.53 1014.42 1012.96 1012.12 1011.28 1010.58 1009.76 1004.26 997.62 994.35 994.66 995.97 996.55 996.14 995.56 996.62 997.53 998.20 998.70 998.74 998.77 998.75 998.68 998.40 998.30 998.20 998.14 998.73 999.19 999.75 1000.33 1000.66 1000.66 1000.89 999.83 999.52 998.71 998.44 998.24 998.95 999.93 1001.03
1014.53 1014.20 1014.22 1013.81 1013.17 1012.34 1012.22 1011.85 1011.07 1007.65 1001.69 997.30 995.77 994.82 995.26 995.65 996.54 996.00 996.72 996.81 996.59 997.65 997.31 998.09 997.36 997.37 997.07 997.19 997.22 997.51 998.44 999.80 1000.58 1001.01 1000.77 1000.56 1000.75 999.25 998.15 997.85 997.79 998.38 999.02 1000.11 1001.07
1014.06 1013.72 1013.29 1013.07 1012.91 1012.57 1012.68 1012.39 1009.72 1005.41 1003.50 998.45 998.82 996.88 996.14 994.96 995.58 995.84 996.20 996.37 996.36 996.19 996.85 996.91 996.33 995.70 995.15 995.17 995.73 996.50 997.68 998.97 1000.63 1001.34 1001.22 1000.42 1000.05 997.76 997.34 997.34 997.19 998.06 999.11 1000.22 1001.41
1013.72 1013.16 1012.62 1012.22 1012.33 1012.47 1013.07 1011.61 1008.53 1006.02 1003.65 1001.60 1000.42 998.84 997.06 995.84 994.98 995.78 995.34 994.74 994.62 994.99 995.62 995.47 994.43 993.77 993.92 994.21 994.81 995.45 996.09 997.37 999.41 1000.56 1001.24 1000.15 998.09 996.79 996.82 996.98 997.61 998.65 999.54 1000.86 1001.72
1013.61 1012.79 1011.45 1010.91 1011.45 1012.20 1012.70 1010.24 1007.74 1006.13 1004.67 1003.93 1003.07 1001.21 999.92 998.42 997.88 996.81 994.62 993.66 994.01 994.35 994.84 994.07 994.59 993.36 992.90 993.56 993.41 993.86 995.05 996.99 998.94 1001.01 1001.33 1000.13 998.77 997.71 997.32 997.36 997.86 999.19 999.95 1001.01 1001.74
1013.37 1012.33 1010.34 1009.87 1011.07 1012.45 1011.65 1010.15 1008.11 1007.05 1006.40 1005.51 1004.58 1003.28 1002.25 1001.05 999.80 998.39 995.46 992.81 992.31 992.92 993.92 994.26 994.21 992.79 993.08 992.11 992.30 993.17 994.57 996.02 998.14 999.84 1000.59 1000.41 998.69 996.42 996.66 997.00 997.93 998.80 999.63 1000.54 1001.46
1013.19 1012.39 1010.54 1009.97 1011.83 1011.94 1011.11 1010.17 1008.55 1007.60 1006.62 1005.94 1005.22 1004.32 1003.44 1003.30 1001.40 999.93 996.03 994.20 991.46 991.95 992.35 992.70 993.64 993.44 991.83 991.03 991.50 992.51 993.83 995.29 997.59 999.26 999.78 999.78 998.19 995.75 996.00 996.49 997.34 998.49 999.40 1000.25 1001.07
1013.27 1011.90 1010.47 1010.70 1011.66 1011.60 1011.04 1009.87 1008.58 1007.61 1006.42 1006.19 1005.15 1004.57 1004.11 1004.53 1003.53 1000.20 997.10 995.00 993.72 992.93 990.83 992.19 993.03 993.09 991.97 991.49 990.91 991.61 992.47 994.39 996.01 997.78 998.70 998.86 998.05 996.08 995.97 996.47 997.06 998.19 999.06 1000.01 1001.07
1013.60 1012.10 1010.98 1011.21 1011.07 1011.10 1010.59 1009.33 1008.26 1007.02 1006.18 1006.31 1005.64 1005.15 1004.74 1004.27 1003.69 1001.25 999.07 996.32 995.46 993.64 991.59 991.06 991.77 992.21 991.25 990.32 990.22 990.83 991.93 993.36 994.98 996.36 997.29 997.16 996.86 996.37 996.08 996.43 997.10 997.80 998.61 999.45 1000.42
1013.67 1012.22 1011.38 1011.16 1010.78 1010.47 1010.10 1009.38 1008.18 1007.19 1006.43 1005.99 1005.82 1004.74 1004.52 1004.38 1003.91 1002.77 1001.47 998.69 996.32 994.29 992.82 991.01 991.36 991.42 991.26 990.21 989.78 989.89 990.86 992.07 993.16 994.84 995.52 995.92 995.70 995.60 995.36 995.41 996.10 996.92 998.06 999.05 999.90
1013.92 1013.02 1012.03 1011.71 1010.56 1009.99 1009.51 1008.64 1007.71 1006.67 1005.76 1005.27 1005.64 1004.88 1004.40 1003.94 1004.64 1003.55 1003.04 1001.51 999.07 995.73 996.00 993.37 991.39 991.33 990.70 989.99 989.71 989.24 989.77 990.62 991.73 993.05 993.78 994.35 994.68 994.70 994.44 994.41 995.32 996.28 997.34 998.22 998.92
1013.80 1013.16 1013.05 1011.77 1010.79 1010.03 1008.99 1008.32 1007.20 1006.54 1005.43 1004.61 1004.04 1003.60 1003.60 1003.48 1004.22 1003.34 1002.75 1001.45 1000.11 998.89 997.46 995.55 992.43 991.38 991.05 990.25 989.79 989.26 988.41 989.26 990.34 991.33 992.20 992.97 993.47 993.45 993.75 994.03 994.86 995.69 996.41 997.14 997.71
Wind_Speed
11 11 12 12 12 13 14 14 14 14 14 14 16 16 17 16 19 4 10 13 11 14 1 7 10 13 10 8 12 12 6 13 17 14 17 10 6 7 6 1 2 7 8 10 12
14 14 13 14 14 14 15 15 15 16 16 16 16 17 17 15 6 13 15 20 20 16 8 12 15 13 11 11 11 13 9 23 15 17 17 9 8 8 7 9 8 3 8 13 14
17 16 15 14 15 13 13 15 16 17 17 18 18 18 17 15 5 10 3 15 17 19 17 12 12 14 15 16 20 17 18 18 16 21 20 13 8 8 11 11 8 6 10 12 7
18 18 17 16 15 14 14 16 17 17 18 18 18 18 20 4 7 2 0 5 13 14 13 13 15 14 18 20 20 18 21 21 22 21 20 8 6 9 14 14 7 5 14 10 9
15 16 16 16 17 16 16 16 17 17 18 17 17 17 10 7 14 8 6 5 6 11 18 16 15 17 20 20 16 21 23 22 22 21 9 5 9 14 20 9 6 7 10 11 10
14 15 16 16 16 15 14 15 16 16 16 15 15 15 4 17 11 16 17 8 9 10 14 14 12 18 10 18 21 19 18 21 22 18 7 9 14 18 16 7 7 7 8 9 11
16 15 15 16 16 17 14 15 15 17 19 17 14 8 10 21 7 11 11 5 12 13 13 17 17 13 11 13 15 16 22 23 19 14 11 14 17 17 10 8 8 9 10 10 10
16 16 17 17 16 16 17 17 18 21 22 18 13 6 12 9 19 25 27 18 15 16 17 15 14 15 12 9 15 18 19 20 10 12 20 10 19 14 10 9 10 11 10 9 12
16 16 17 19 18 18 17 18 22 25 21 16 6 7 11 10 17 24 18 16 12 16 15 15 8 11 10 16 13 11 13 14 15 18 22 12 20 18 11 9 9 10 9 11 11
16 15 16 18 19 18 17 22 24 18 12 10 9 5 10 13 14 19 20 18 12 9 14 12 6 12 12 10 19 13 10 13 19 24 18 18 16 9 12 12 12 10 9 9 9
18 16 16 16 18 17 13 10 3 4 8 13 16 14 9 18 6 14 13 17 18 10 12 9 7 18 21 20 12 14 14 19 23 21 22 5 20 10 10 8 8 9 8 8 11
19 18 16 16 18 16 7 6 12 6 12 22 26 26 25 18 12 15 17 18 18 21 14 13 25 18 18 15 16 17 19 24 23 21 10 17 18 9 8 7 9 11 10 6 8
18 18 15 15 16 11 8 13 14 16 8 13 23 27 20 18 23 20 20 20 21 21 22 24 8 19 18 18 19 20 20 21 20 22 18 5 7 4 5 8 9 12 8 14 20
17 16 14 10 8 8 11 15 14 11 7 11 14 16 19 13 17 28 23 23 9 25 22 19 18 18 23 22 22 21 20 23 23 17 8 2 6 4 6 9 9 7 10 14 16
16 15 12 4 8 7 10 16 17 3 7 9 17 13 20 29 14 21 29 22 22 19 24 21 25 25 24 24 25 21 18 22 22 16 5 3 2 5 6 10 17 8 12 15 16
17 15 11 5 5 12 13 16 7 3 14 10 9 18 19 27 18 3 30 24 15 19 23 23 13 22 29 24 26 24 16 18 12 5 2 6 7 7 8 8 5 7 10 14 11
18 15 8 6 5 9 8 7 3 9 11 7 2 20 20 16 25 19 24 27 22 20 25 21 28 26 23 23 23 19 12 7 4 1 8 6 4 10 10 9 8 8 8 11 13
17 12 7 8 9 7 2 3 11 12 22 25 22 19 11 18 24 31 15 25 25 23 11 16 17 30 24 28 23 16 14 8 9 4 7 7 10 19 12 10 11 11 11 13 12
14 5 6 7 9 5 2 9 8 12 17 20 28 18 9 11 10 25 27 30 30 26 20 19 20 14 28 22 22 21 11 13 6 2 2 6 8 5 7 9 9 13 13 11 10
4 5 8 8 10 3 4 9 15 16 18 19 21 16 24 23 18 12 21 27 27 30 17 11 7 22 21 20 23 23 7 6 2 7 6 6 7 5 9 10 7 13 12 10 10
2 3 5 6 7 2 7 10 14 17 20 21 21 23 21 22 19 17 15 15 30 27 30 19 6 10 21 23 25 12 5 5 8 7 6 3 9 8 11 9 15 15 14 15 14
3 3 3 5 2 3 3 7 6 18 20 20 20 18 19 22 17 15 13 14 18 22 32 28 7 12 17 17 22 10 9 9 9 6 5 6 8 6 11 11 11 15 13 10 12
3 4 2 5 3 2 9 17 17 20 18 17 20 19 12 14 10 14 14 21 18 16 30 24 19 3 13 9 17 16 14 8 8 7 9 5 7 4 8 11 16 14 14 13 11
3 4 2 3 5 6 10 11 13 12 14 9 14 20 8 16 16 17 28 16 32 18 19 27 12 21 9 10 17 13 20 16 9 7 6 9 7 4 8 11 14 14 14 15 13
2 4 2 4 5 6 5 9 17 13 14 14 8 14 9 9 19 17 20 30 22 12 20 16 25 12 24 22 10 24 22 20 17 9 13 7 6 14 12 11 18 16 15 15 14
2 4 5 9 8 10 7 9 15 17 13 10 9 18 17 13 9 20 16 13 15 14 19 12 18 20 11 20 18 23 23 20 19 10 9 11 9 10 10 9 13 20 19 18 16
3 4 4 4 7 7 6 9 13 15 11 13 12 9 12 8 5 15 16 18 23 21 17 8 5 15 16 10 11 14 25 24 20 10 13 15 7 6 7 12 20 19 19 20 18
Wind_Direction
327 329 331 334 337 338 336 335 332 330 328 330 325 318 318 320 309 217 234 223 198 192 219 160 210 227 232 215 225 244 251 261 264 269 276 311 351 317 328 162 214 192 164 157 153
321 320 324 332 335 336 333 331 329 326 329 327 315 320 320 326 281 250 239 211 234 170 204 201 202 211 228 235 222 228 232 247 258 268 277 297 327 325 351 320 292 227 88 134 149
316 316 316 317 320 322 322 325 324 325 323 318 320 323 315 319 282 243 157 231 220 171 211 228 227 204 228 238 234 236 240 251 254 259 272 284 317 310 308 293 269 155 158 156 156
326 313 310 309 306 305 306 310 314 317 313 311 319 321 314 261 238 175 236 125 177 180 210 223 239 227 227 234 238 250 245 250 255 258 256 254 289 291 280 265 258 190 152 157 166
324 321 315 307 298 296 299 300 304 307 304 311 316 320 338 226 235 256 105 101 136 192 210 218 227 235 236 231 241 243 248 253 260 264 247 261 267 263 268 273 295 137 138 171 176
319 316 318 317 305 296 289 293 296 293 292 300 310 318 218 242 258 256 265 165 185 196 214 213 225 227 268 233 243 249 254 252 254 263 247 256 261 259 253 247 239 149 159 169 175
323 318 314 315 316 312 300 293 289 287 291 300 306 289 250 233 254 300 301 283 208 191 212 222 231 246 235 265 251 259 264 273 265 264 258 243 254 254 250 225 229 200 206 203 195
317 317 322 315 310 307 302 294 289 284 285 291 298 261 255 260 232 249 263 269 268 214 202 222 218 241 251 276 283 276 259 258 252 265 258 228 258 239 235 217 238 227 224 187 200
320 318 314 321 315 310 302 294 285 277 279 282 261 209 262 243 229 229 232 227 247 231 197 221 215 214 234 238 267 256 259 262 268 245 259 224 247 243 205 221 251 227 227 205 208
312 312 314 313 317 314 308 293 270 274 262 231 240 218 259 234 228 224 221 229 218 250 207 217 217 230 240 216 228 235 257 253 256 258 256 258 261 199 201 204 227 245 227 223 166
318 305 307 311 310 320 327 321 187 161 234 203 193 211 278 211 303 221 195 203 229 222 205 199 210 228 223 231 228 242 248 249 254 257 250 274 271 218 209 207 226 240 241 218 160
319 315 299 306 308 311 304 265 276 360 287 232 244 231 255 283 299 239 195 190 204 214 207 221 223 221 232 232 241 228 249 261 274 277 264 214 245 236 205 206 216 227 243 196 117
315 312 297 302 309 298 215 239 263 292 266 254 232 236 230 243 249 250 198 198 195 209 203 216 222 216 228 230 239 238 231 250 258 275 285 289 321 297 237 229 258 245 212 140 150
307 305 300 311 296 292 277 333 302 216 279 258 210 237 215 213 257 223 246 199 189 207 211 235 218 221 214 228 225 239 223 236 249 258 251 104 274 303 301 288 280 254 133 148 155
304 303 292 219 308 317 323 314 318 167 277 214 209 181 189 189 138 207 216 206 204 199 200 209 207 213 227 216 228 240 224 230 240 248 223 278 298 254 277 284 287 172 155 161 162
303 298 291 252 204 248 292 319 304 218 246 271 149 180 167 202 219 153 190 221 202 212 222 223 231 212 230 232 224 231 232 240 243 190 272 211 178 264 232 238 199 169 162 162 145
306 292 276 252 258 313 319 316 222 227 286 248 343 169 186 185 203 234 187 204 201 197 215 219 222 236 237 230 237 221 217 244 329 358 225 215 279 235 260 229 164 130 126 137 134
312 298 242 227 250 270 17 258 225 244 254 294 334 335 226 171 203 212 204 207 218 206 173 207 225 214 218 228 230 223 195 172 199 167 250 242 238 249 219 165 120 128 126 124 130
310 262 239 234 225 227 104 225 231 247 283 302 333 310 313 244 178 207 217 206 211 208 206 193 229 182 219 223 218 241 202 180 137 213 249 238 276 223 159 126 126 128 123 129 133
289 300 254 215 207 161 213 241 238 248 281 307 307 292 316 319 333 304 208 219 213 211 213 249 227 230 211 219 241 210 174 133 70 190 264 292 306 225 151 172 160 135 135 137 139
267 278 261 188 137 176 237 253 276 274 290 299 313 313 310 312 310 318 264 244 205 204 209 214 216 236 214 207 215 216 172 121 129 148 174 232 268 205 176 162 145 149 150 150 152
324 287 317 99 156 197 245 245 278 299 297 300 290 286 292 355 314 306 258 253 210 195 202 208 200 239 231 213 201 188 159 148 167 229 224 175 272 140 140 152 133 146 148 146 150
279 256 210 101 255 202 266 271 268 272 284 302 297 296 338 306 306 283 309 324 359 309 198 194 224 254 243 276 195 182 178 146 139 135 211 163 251 198 138 126 134 138 150 146 141
300 304 89 182 187 220 276 287 289 279 287 319 316 297 280 283 280 294 314 325 326 330 310 175 194 214 221 208 187 171 181 187 151 175 181 213 237 196 147 143 146 151 151 152 154
261 275 184 291 315 282 273 283 285 288 281 280 319 319 259 287 303 293 318 324 325 338 346 191 202 193 226 250 202 183 180 186 201 171 184 220 228 181 179 175 163 159 150 155 157
281 325 347 300 299 311 299 265 279 291 267 285 262 256 269 256 284 299 315 321 297 328 348 321 208 199 224 230 242 190 187 189 207 184 180 174 228 187 216 194 137 157 162 165 167
299 318 289 281 290 296 276 295 288 290 288 260 275 306 317 299 273 269 268 272 268 284 302 282 298 180 214 235 232 236 188 193 206 202 177 198 180 255 174 192 155 158 165 171 176